When you browse on this site, cookies collect data to enhance your experience and personalize the content and advertising you see.
Visit our Privacy Policy to learn more. By continuing to use the site, you agree to this use of cookies and data.
  • In Deutschland
  • Länderverzeichnis
  • Für 7 Tage
  • Wassertemperatur
  • Satellitenkarten
  • Wetterkarte
  • Widgets
  • user-avatar
    Anmelden

    Stündliche Wetter Naumivka

    Heute, 18 November, Sonntag

    Zeit Temperatur Niederschläge Wind Luftdruck Luftfeuchtigkeit
    00:00 -3°C° 0 mm 1 m/S 763 mmHg 59%
    01:00 -3°C° 0 mm 1 m/S 762 mmHg 59%
    02:00 -4°C° 0 mm 1 m/S 762 mmHg 62%
    03:00 -4°C° 0 mm 1 m/S 761 mmHg 64%
    04:00 -4°C° 0 mm 1 m/S 760 mmHg 65%
    05:00 -4°C° 0 mm 1 m/S 760 mmHg 66%
    06:00 -4°C° 0 mm 1 m/S 759 mmHg 67%
    07:00 -6°C° 0 mm 2 m/S 759 mmHg 69%
    08:00 -6°C° 0 mm 2 m/S 758 mmHg 71%
    09:00 -5°C° 0 mm 2 m/S 758 mmHg 67%
    10:00 -2°C° 0 mm 1 m/S 758 mmHg 64%
    11:00 -1°C° 0 mm 1 m/S 757 mmHg 60%
    12:00 0°C° 0 mm 1 m/S 757 mmHg 62%
    13:00 0°C° 0 mm 1 m/S 757 mmHg 64%
    14:00 +1°C° 0 mm 1 m/S 756 mmHg 69%
    15:00 0°C° 0 mm 1 m/S 756 mmHg 71%
    16:00 -1°C° 0 mm 1 m/S 756 mmHg 73%
    17:00 -2°C° 0 mm 1 m/S 756 mmHg 75%
    18:00 -3°C° 0 mm 1 m/S 756 mmHg 74%
    19:00 -3°C° 0 mm 1 m/S 756 mmHg 74%
    20:00 -4°C° 0 mm 0 m/S 756 mmHg 74%
    21:00 -3°C° 0 mm 1 m/S 756 mmHg 74%
    22:00 -3°C° 0 mm 1 m/S 756 mmHg 74%
    23:00 -3°C° 0 mm 1 m/S 756 mmHg 74%

    Morgen, 19 November, Montag

    Zeit Temperatur Niederschläge Wind Luftdruck Luftfeuchtigkeit
    00:00 -3°C° 0 mm 1 m/S 756 mmHg 75%
    01:00 -4°C° 0 mm 1 m/S 757 mmHg 76%
    02:00 -4°C° 0 mm 1 m/S 757 mmHg 77%
    03:00 -4°C° 0 mm 1 m/S 757 mmHg 77%
    04:00 -6°C° 0 mm 2 m/S 757 mmHg 78%
    05:00 -6°C° 0 mm 2 m/S 757 mmHg 78%
    06:00 -6°C° 0 mm 2 m/S 757 mmHg 78%
    07:00 -6°C° 0 mm 2 m/S 757 mmHg 77%
    08:00 -6°C° 0 mm 2 m/S 757 mmHg 77%
    09:00 -5°C° 0 mm 2 m/S 757 mmHg 73%
    10:00 -5°C° 0 mm 3 m/S 757 mmHg 70%
    11:00 -4°C° 0 mm 3 m/S 758 mmHg 66%
    12:00 -2°C° 0 mm 3 m/S 757 mmHg 67%
    13:00 -2°C° 0 mm 3 m/S 757 mmHg 67%
    14:00 -1°C° 0 mm 3 m/S 757 mmHg 68%
    15:00 -2°C° 0 mm 3 m/S 757 mmHg 70%
    16:00 -4°C° 0 mm 3 m/S 757 mmHg 72%
    17:00 -4°C° 0 mm 3 m/S 757 mmHg 74%
    18:00 -4°C° 0 mm 4 m/S 757 mmHg 71%
    19:00 -4°C° 0 mm 4 m/S 757 mmHg 69%
    20:00 -4°C° 0 mm 4 m/S 757 mmHg 67%
    21:00 -4°C° 0 mm 4 m/S 757 mmHg 68%
    22:00 -4°C° 0 mm 4 m/S 757 mmHg 68%
    23:00 -4°C° 0 mm 4 m/S 757 mmHg 69%

    übermorgen, 20 November, Dienstag

    Zeit Temperatur Niederschläge Wind Luftdruck Luftfeuchtigkeit
    00:00 -4°C° 0 mm 4 m/S 757 mmHg 70%
    01:00 -4°C° 0 mm 4 m/S 757 mmHg 72%
    02:00 -5°C° 0 mm 4 m/S 757 mmHg 73%
    03:00 -5°C° 0 mm 4 m/S 757 mmHg 76%
    04:00 -5°C° 0 mm 4 m/S 757 mmHg 79%
    05:00 -5°C° 0 mm 4 m/S 757 mmHg 81%
    06:00 -6°C° 0 mm 5 m/S 757 mmHg 84%
    07:00 -5°C° 0 mm 5 m/S 757 mmHg 86%
    08:00 -5°C° 0 mm 5 m/S 757 mmHg 89%
    09:00 -5°C° 0 mm 5 m/S 757 mmHg 87%
    10:00 -4°C° 0 mm 5 m/S 757 mmHg 85%
    11:00 -2°C° 0 mm 5 m/S 757 mmHg 84%
    12:00 -2°C° 0 mm 4 m/S 757 mmHg 83%
    13:00 -2°C° 0 mm 4 m/S 757 mmHg 83%
    14:00 -2°C° 0 mm 4 m/S 757 mmHg 83%
    15:00 -2°C° 0 mm 4 m/S 757 mmHg 85%
    16:00 -3°C° 0 mm 4 m/S 757 mmHg 86%
    17:00 -3°C° 0 mm 4 m/S 757 mmHg 88%
    18:00 -2°C° 0 mm 3 m/S 758 mmHg 88%
    19:00 -4°C° 0 mm 3 m/S 758 mmHg 89%
    20:00 -4°C° 0 mm 3 m/S 758 mmHg 90%
    21:00 -4°C° 0 mm 3 m/S 758 mmHg 90%
    22:00 -4°C° 0 mm 2 m/S 758 mmHg 91%
    23:00 -4°C° 0 mm 2 m/S 758 mmHg 91%

    21 November, Mittwoch

    Zeit Temperatur Niederschläge Wind Luftdruck Luftfeuchtigkeit
    00:00 -4°C° 0 mm 2 m/S 758 mmHg 91%
    01:00 -4°C° 0 mm 2 m/S 758 mmHg 92%
    02:00 -4°C° 0 mm 2 m/S 758 mmHg 92%
    03:00 -4°C° 0 mm 2 m/S 758 mmHg 92%
    04:00 -5°C° 0 mm 2 m/S 758 mmHg 92%
    05:00 -5°C° 0 mm 2 m/S 758 mmHg 92%
    06:00 -5°C° 0 mm 2 m/S 758 mmHg 92%
    07:00 -5°C° 0 mm 2 m/S 758 mmHg 92%
    08:00 -5°C° 0 mm 2 m/S 758 mmHg 93%
    09:00 -4°C° 0 mm 2 m/S 758 mmHg 88%
    10:00 -2°C° 0 mm 3 m/S 758 mmHg 84%
    11:00 -1°C° 0 mm 3 m/S 758 mmHg 80%
    12:00 -1°C° 0 mm 3 m/S 758 mmHg 79%
    13:00 -1°C° 0 mm 2 m/S 758 mmHg 78%
    14:00 -1°C° 0 mm 2 m/S 758 mmHg 77%
    15:00 -2°C° 0 mm 2 m/S 757 mmHg 82%
    16:00 -3°C° 0 mm 2 m/S 757 mmHg 86%
    17:00 -4°C° 0 mm 2 m/S 757 mmHg 90%
    18:00 -4°C° 0 mm 2 m/S 757 mmHg 90%
    19:00 -4°C° 0 mm 2 m/S 757 mmHg 91%
    20:00 -5°C° 0 mm 2 m/S 758 mmHg 91%
    21:00 -5°C° 0 mm 2 m/S 758 mmHg 92%
    22:00 -5°C° 0 mm 2 m/S 758 mmHg 92%
    23:00 -5°C° 0 mm 2 m/S 758 mmHg 92%

    22 November, Donnerstag

    Zeit Temperatur Niederschläge Wind Luftdruck Luftfeuchtigkeit
    00:00 -5°C° 0 mm 2 m/S 758 mmHg 92%
    01:00 -5°C° 0 mm 2 m/S 758 mmHg 93%
    02:00 -5°C° 0 mm 2 m/S 758 mmHg 94%
    03:00 -5°C° 0 mm 2 m/S 758 mmHg 94%
    04:00 -5°C° 0 mm 2 m/S 758 mmHg 94%
    05:00 -6°C° 0 mm 2 m/S 758 mmHg 94%
    06:00 -5°C° 0 mm 2 m/S 758 mmHg 92%
    07:00 -5°C° 0 mm 2 m/S 758 mmHg 91%
    08:00 -4°C° 0 mm 2 m/S 759 mmHg 89%
    09:00 -4°C° 0 mm 2 m/S 759 mmHg 84%
    10:00 -3°C° 0 mm 2 m/S 759 mmHg 79%
    11:00 -2°C° 0 mm 3 m/S 759 mmHg 73%
    12:00 -2°C° 0 mm 3 m/S 759 mmHg 73%
    13:00 -2°C° 0 mm 3 m/S 759 mmHg 74%
    14:00 -1°C° 0 mm 3 m/S 759 mmHg 74%
    15:00 -2°C° 0 mm 3 m/S 759 mmHg 79%
    16:00 -4°C° 0 mm 3 m/S 759 mmHg 83%
    17:00 -5°C° 0 mm 3 m/S 759 mmHg 88%
    18:00 -5°C° 0 mm 3 m/S 759 mmHg 89%
    19:00 -5°C° 0 mm 3 m/S 759 mmHg 90%
    20:00 -6°C° 0 mm 3 m/S 759 mmHg 90%
    21:00 -6°C° 0 mm 3 m/S 759 mmHg 91%
    22:00 -6°C° 0 mm 3 m/S 759 mmHg 92%
    23:00 -6°C° 0 mm 3 m/S 759 mmHg 92%

    23 November, Freitag

    Zeit Temperatur Niederschläge Wind Luftdruck Luftfeuchtigkeit
    00:00 -6°C° 0 mm 3 m/S 760 mmHg 92%
    01:00 -6°C° 0 mm 3 m/S 760 mmHg 93%
    02:00 -6°C° 0 mm 3 m/S 760 mmHg 93%
    03:00 -6°C° 0 mm 3 m/S 760 mmHg 92%
    04:00 -5°C° 0 mm 2 m/S 760 mmHg 91%
    05:00 -5°C° 0 mm 2 m/S 761 mmHg 90%
    06:00 -5°C° 0 mm 2 m/S 761 mmHg 90%
    07:00 -5°C° 0 mm 2 m/S 761 mmHg 91%
    08:00 -5°C° 0 mm 2 m/S 762 mmHg 91%
    09:00 -2°C° 0 mm 1 m/S 762 mmHg 88%
    10:00 -1°C° 0 mm 1 m/S 762 mmHg 85%
    11:00 0°C° 0 mm 1 m/S 763 mmHg 82%
    12:00 0°C° 0 mm 1 m/S 763 mmHg 82%
    13:00 0°C° 0 mm 1 m/S 762 mmHg 81%
    14:00 0°C° 0 mm 1 m/S 762 mmHg 81%
    15:00 0°C° 0 mm 1 m/S 762 mmHg 84%
    16:00 -1°C° 0 mm 1 m/S 762 mmHg 87%
    17:00 -2°C° 0 mm 1 m/S 762 mmHg 91%
    18:00 -2°C° 0 mm 1 m/S 762 mmHg 91%
    19:00 -2°C° 0 mm 1 m/S 762 mmHg 91%
    20:00 -3°C° 0 mm 1 m/S 762 mmHg 92%
    21:00 -5°C° 0 mm 2 m/S 761 mmHg 92%
    22:00 -5°C° 0 mm 2 m/S 761 mmHg 93%
    23:00 -5°C° 0 mm 2 m/S 761 mmHg 93%
    Mehr zeigen